^^
Station Historical Data
Daily Summary for March 20, 2017 Units:  Metric    English   Both
« Previous Day
Next Day »
Daily Weekly Monthly Yearly Custom
  High: Low: Average:
Temperature: 34.7 °C 25.9 °C 31.2 °C
Dew Point: 14.7 °C 7 °C 11.2 °C
Humidity: 44% 19% 31%
Wind Speed: 33.8km/h 0km/h 13km/h
Wind Gust: 41.8km/h - -
Wind- - ENE
Pressure: 1016.8 hPa 1012.8 hPa -
Precipitation: 0 mm    
Historical Graphs
 
 
Tabular Data for March 20, 2017
Time Temperature Dew Point Pressure Wind Wind Speed Wind Gust Humidity Rainfall Rate (Hourly) solar Conditions
06:53 25.9 °C 12.7 °C 1016.1 hPa NE 7.9 km/h 12.9 km/h 44% 0 mm 0.0 W/m2
06:59 26.1 °C 12.5 °C 1016.1 hPa NE 13 km/h 16.1 km/h 43% 0 mm 7.0 W/m2
07:05 26.3 °C 12.7 °C 1016.1 hPa NE 13 km/h 16.1 km/h 43% 0 mm 12.0 W/m2
07:17 26.4 °C 12.8 °C 1016.1 hPa NE 3.2 km/h 14.5 km/h 43% 0 mm 21.0 W/m2
07:32 26.6 °C 12.6 °C 1016.5 hPa NE 6.4 km/h 17.7 km/h 42% 0 mm 53.0 W/m2
07:41 26.9 °C 12.9 °C 1016.5 hPa NE 1.4 km/h 11.3 km/h 42% 0 mm 105.0 W/m2
07:49 26.8 °C 12.8 °C 1016.5 hPa Calm     42% 0 mm 127.0 W/m2
07:54 26.7 °C 12.7 °C 1016.5 hPa NE 6.4 km/h 12.9 km/h 42% 0 mm 142.0 W/m2
08:01 26.9 °C 12.9 °C 1016.5 hPa NE 14.3 km/h 19.3 km/h 42% 0 mm 158.0 W/m2
08:12 27.3 °C 12.9 °C 1016.5 hPa NE 14.3 km/h 24.1 km/h 41% 0 mm 195.0 W/m2
08:16 27.6 °C 12.8 °C 1016.5 hPa NE 19.5 km/h 30.6 km/h 40% 0 mm 239.0 W/m2
08:31 27.9 °C 13.1 °C 1016.5 hPa NNE 20.9 km/h 33.8 km/h 40% 0 mm 279.0 W/m2
08:52 28.2 °C 12.9 °C 1016.5 hPa NNE 24.1 km/h 30.6 km/h 39% 0 mm 330.0 W/m2
09:01 28.4 °C 13.1 °C 1016.5 hPa NNE 19.5 km/h 33.8 km/h 39% 0 mm 371.0 W/m2
09:11 28.5 °C 13.6 °C 1016.5 hPa NE 33.8 km/h 38.6 km/h 40% 0 mm 399.0 W/m2
09:21 28.8 °C 13.5 °C 1016.5 hPa NNE 20.9 km/h 38.6 km/h 39% 0 mm 436.0 W/m2
09:31 29.3 °C 13.9 °C 1016.5 hPa NE 32 km/h 37 km/h 39% 0 mm 468.0 W/m2
09:42 29.2 °C 14.2 °C 1016.5 hPa NNE 16.3 km/h 41.8 km/h 40% 0 mm 501.0 W/m2
09:55 29.7 °C 14.7 °C 1016.8 hPa NNE 14.3 km/h 20.9 km/h 40% 0 mm 526.0 W/m2
10:01 29.8 °C 14.7 °C 1016.8 hPa North 27.4 km/h 38.6 km/h 40% 0 mm 571.0 W/m2
10:09 29.8 °C 14.7 °C 1016.8 hPa North 13 km/h 29 km/h 40% 0 mm 582.0 W/m2
10:14 29.7 °C 14.7 °C 1016.8 hPa North 16.3 km/h 27.4 km/h 40% 0 mm 601.0 W/m2
10:21 29.6 °C 14.6 °C 1016.8 hPa North 22.7 km/h 35.4 km/h 40% 0 mm 615.0 W/m2
10:26 29.7 °C 13.9 °C 1016.8 hPa North 16.3 km/h 32.2 km/h 38% 0 mm 643.0 W/m2
10:48 30.1 °C 13.4 °C 1016.8 hPa North 11.1 km/h 32.2 km/h 36% 0 mm 682.0 W/m2
10:57 30.4 °C 13.7 °C 1016.8 hPa NNE 17.7 km/h 33.8 km/h 36% 0 mm 710.0 W/m2
11:19 30.3 °C 13.6 °C 1016.5 hPa NNE 22.7 km/h 33.8 km/h 36% 0 mm 742.0 W/m2
11:27 30.8 °C 13.6 °C 1016.1 hPa North 20.9 km/h 37 km/h 35% 0 mm 766.0 W/m2
11:42 31.1 °C 13.8 °C 1016.1 hPa North 24.1 km/h 30.6 km/h 35% 0 mm 788.0 W/m2
11:57 31.7 °C 13.5 °C 1015.8 hPa NE 22.7 km/h 30.6 km/h 33% 0 mm 800.0 W/m2
12:18 32.4 °C 12.6 °C 1015.5 hPa North 19.5 km/h 29 km/h 30% 0 mm 828.0 W/m2
12:27 31.8 °C 11.6 °C 1015.1 hPa North 19.5 km/h 35.4 km/h 29% 0 mm 840.0 W/m2
12:49 32.2 °C 11.4 °C 1015.1 hPa North 17.7 km/h 32.2 km/h 28% 0 mm 844.0 W/m2
13:04 32.7 °C 11.8 °C 1014.8 hPa NNW 11.1 km/h 29 km/h 28% 0 mm 830.0 W/m2
13:12 32.9 °C 11.4 °C 1014.8 hPa NE 20.9 km/h 25.7 km/h 27% 0 mm 842.0 W/m2
13:27 33 °C 10.4 °C 1014.4 hPa NNE 14.3 km/h 27.4 km/h 25% 0 mm 837.0 W/m2
13:42 33.4 °C 10.7 °C 1014.4 hPa North 14.3 km/h 29 km/h 25% 0 mm 823.0 W/m2
14:04 33.3 °C 10.6 °C 1014.1 hPa North 14.3 km/h 17.7 km/h 25% 0 mm 809.0 W/m2
14:12 33.8 °C 10.4 °C 1013.8 hPa North 16.3 km/h 25.7 km/h 24% 0 mm 786.0 W/m2
14:27 33.7 °C 10.3 °C 1013.8 hPa NNE 17.7 km/h 17.7 km/h 24% 0 mm 766.0 W/m2
14:42 34.1 °C 9.4 °C 1013.4 hPa NNW 13 km/h 22.5 km/h 22% 0 mm 737.0 W/m2
14:57 34.3 °C 9.5 °C 1013.4 hPa North 19.5 km/h 24.1 km/h 22% 0 mm 712.0 W/m2
15:17 33.8 °C 9.1 °C 1013.4 hPa North 6.4 km/h 11.3 km/h 22% 0 mm 682.0 W/m2
15:25 34.1 °C 9.4 °C 1013.4 hPa NE 9.7 km/h 20.9 km/h 22% 0 mm 659.0 W/m2
15:27 34 °C 9.3 °C 1013.4 hPa NE 11.1 km/h 14.5 km/h 22% 0 mm 645.0 W/m2
15:37 34 °C 9.3 °C 1013.1 hPa Calm     22% 0 mm 631.0 W/m2
15:48 34.1 °C 9.4 °C 1013.1 hPa North 13 km/h 22.5 km/h 22% 0 mm 605.0 W/m2
15:53 34.1 °C 8.7 °C 1013.1 hPa Calm     21% 0 mm 573.0 W/m2
16:15 34.7 °C 8.4 °C 1012.8 hPa Calm     20% 0 mm 533.0 W/m2
16:31 34.3 °C 8.8 °C 1012.8 hPa NNE 13 km/h 16.1 km/h 21% 0 mm 485.0 W/m2
16:44 34.3 °C 8.1 °C 1012.8 hPa ENE 11.1 km/h 11.3 km/h 20% 0 mm 438.0 W/m2
16:52 34.2 °C 8 °C 1012.8 hPa Calm     20% 0 mm 403.0 W/m2
16:59 34.3 °C 8.1 °C 1012.8 hPa NNE 6.4 km/h 22.5 km/h 20% 0 mm 374.0 W/m2
17:14 34.2 °C 8 °C 1012.8 hPa North 19.5 km/h 19.5 km/h 20% 0 mm 338.0 W/m2
17:19 34.2 °C 8 °C 1012.8 hPa NE 13 km/h 13 km/h 20% 0 mm 306.0 W/m2
17:33 34.1 °C 8 °C 1012.8 hPa NE 7.9 km/h 11.3 km/h 20% 0 mm 267.0 W/m2
17:43 34 °C 7.1 °C 1012.8 hPa NNE 1.4 km/h 12.9 km/h 19% 0 mm 227.0 W/m2
17:55 33.8 °C 7 °C 1012.8 hPa Calm     19% 0 mm 183.0 W/m2
18:06 33.7 °C 7.6 °C 1012.8 hPa NNE 7.9 km/h 17.7 km/h 20% 0 mm 144.0 W/m2
18:22 33.6 °C 7.5 °C 1012.8 hPa North 6.4 km/h 14.5 km/h 20% 0 mm 79.0 W/m2
18:30 33.3 °C 7.3 °C 1012.8 hPa NNE 3.2 km/h 14.5 km/h 20% 0 mm 28.0 W/m2
18:45 32.8 °C 7.6 °C 1012.8 hPa Calm   9.7 km/h 21% 0 mm 9.0 W/m2
19:00 32.6 °C 7.4 °C 1012.8 hPa North 11.1 km/h 19.3 km/h 21% 0 mm 5.0 W/m2
19:08 32.4 °C 7.3 °C 1012.8 hPa North 1.4 km/h 16.1 km/h 21% 0 mm 0.0 W/m2
Canyon Roadhouse, Fishriver Canyon, Namibia
Compliments of Weather Underground - 2 mb